Weather History for KUAO - November, 2013

Change the Weather History Date:

Wednesday, November 13, 2013

  Actual Average Record
Temperature  
Mean Temperature 48 °F -  
Max Temperature 51 °F - 70 °F (1999)
Min Temperature 45 °F - 32 °F (2003)
Degree Days  
Heating Degree Days 17    
Month to date heating degree days 210  
Since 1 July heating degree days 727  
Cooling Degree Days 0    
Month to date cooling degree days 0  
Year to date cooling degree days 426  
Moisture  
Dew Point 48 °F    
Average Humidity 93    
Maximum Humidity 100    
Minimum Humidity 86    
Precipitation  
Precipitation 0.00 in - 1.00 in (1957)
Month to date precipitation 2.19  
Year to date precipitation 24.15  
Sea Level Pressure  
Sea Level Pressure 30.44 in    
Wind  
Wind Speed 3 mph (NNW)    
Max Wind Speed 8 mph    
Max Gust Speed 11 mph    
Visibility 3 miles    
Events Fog    
T = Trace of Precipitation, MM = Missing Value Source: NWS Daily Summary

Daily Weather History Graph

Daily Weather History Graph

Search for Another Location

Airport or City:

Trip Planner

Search our weather history database for the weather conditions in past years. The results will help you decide how hot, cold, wet, or windy it might be!

Date:

Astronomy

Nov. 13, 2013 Rise Set
Actual Time 7:07 AM PST 4:43 PM PST
Civil Twilight 6:35 AM PST 5:14 PM PST
Nautical Twilight 5:59 AM PST 5:50 PM PST
Astronomical Twilight 5:24 AM PST 6:25 PM PST
Moon 2:42 PM PST (11/13) 2:55 AM PST (11/13)
Length of Visible Light 10h 39m
Length of Day
9h 36m
Waxing Gibbous, 85% of the Moon is Illuminated
Nov 13
Waxing Gibbous
Nov 17
Full
Nov 25
Last Quarter
Dec 2
New
Dec 9
First Quarter

Hourly Weather History & Observations

Time (PST) Temp. Windchill Dew Point Humidity Pressure Visibility Wind Dir Wind Speed Gust Speed Precip Events Conditions
12:20 AM 50.0 °F - 50.0 °F 100% 30.45 in 0.2 mi Calm Calm - N/A Fog Fog
12:37 AM 50.0 °F - 50.0 °F 100% 30.45 in 0.5 mi Calm Calm - N/A Fog Fog
12:53 AM 50.0 °F - 50.0 °F 100% 30.45 in 0.2 mi Calm Calm - N/A Fog Fog
1:08 AM 50.0 °F - 50.0 °F 100% 30.45 in 0.5 mi WSW 3.5 mph - N/A Fog Fog
1:15 AM 50.0 °F - 50.0 °F 100% 30.45 in 0.2 mi WSW 4.6 mph - N/A Fog Fog
1:41 AM 50.0 °F - 50.0 °F 100% 30.45 in 0.5 mi Calm Calm - N/A Fog Fog
1:53 AM 50.0 °F - 50.0 °F 100% 30.46 in 0.5 mi Calm Calm - N/A Fog Fog
2:51 AM 50.0 °F - 50.0 °F 100% 30.46 in 0.2 mi Calm Calm - N/A Fog Fog
2:53 AM 50.0 °F - 50.0 °F 100% 30.46 in 0.2 mi SW 3.5 mph - N/A Fog Fog
3:48 AM 48.2 °F - 48.2 °F 100% 30.46 in 0.5 mi WSW 3.5 mph - N/A Fog Fog
3:53 AM 48.9 °F - 48.9 °F 100% 30.47 in 0.5 mi West 3.5 mph - N/A Fog Fog
4:53 AM 48.0 °F - 48.0 °F 100% 30.47 in 0.8 mi WSW 3.5 mph - N/A   Mist
5:42 AM 48.0 °F - 48.0 °F 100% 30.47 in 0.2 mi SSW 4.6 mph - N/A Fog Fog
5:53 AM 46.9 °F - 46.9 °F 100% 30.48 in 0.2 mi WSW 3.5 mph - N/A Fog Fog
6:08 AM 46.9 °F - 46.9 °F 100% 30.47 in 0.5 mi Calm Calm - N/A Fog Fog
6:53 AM 46.9 °F - 46.9 °F 100% 30.49 in 0.5 mi WNW 3.5 mph - N/A Fog Fog
7:37 AM 46.0 °F - 46.0 °F 100% 30.48 in 0.2 mi Calm Calm - N/A Fog Fog
7:53 AM 46.0 °F 44.8 °F 46.0 °F 100% 30.49 in 0.2 mi West 3.5 mph - N/A Fog Fog
8:53 AM 46.0 °F - 46.0 °F 100% 30.49 in 0.2 mi Calm Calm - N/A Fog Fog
9:34 AM 46.0 °F - 46.0 °F 100% 30.48 in 0.5 mi Calm Calm - N/A Fog Fog
9:53 AM 46.0 °F - 46.0 °F 100% 30.49 in 0.5 mi Calm Calm - N/A Fog Fog
10:53 AM 46.9 °F - 46.9 °F 100% 30.51 in 0.8 mi NNW 3.5 mph - N/A   Overcast
11:07 AM 46.9 °F - 46.9 °F 100% 30.49 in 1.8 mi Calm Calm - N/A   Overcast
11:10 AM 46.9 °F - 46.9 °F 100% 30.48 in 3.0 mi North 3.5 mph - N/A   Overcast
11:21 AM 46.9 °F - 46.9 °F 100% 30.47 in 2.5 mi NE 5.8 mph - N/A   Overcast
11:31 AM 48.0 °F - 48.0 °F 100% 30.46 in 5.0 mi NE 5.8 mph - N/A   Overcast
11:53 AM 48.0 °F - 48.0 °F 100% 30.47 in 4.0 mi North 4.6 mph - N/A   Overcast
12:53 PM 48.9 °F - 48.9 °F 100% 30.48 in 7.0 mi NW 4.6 mph - N/A   Overcast
1:28 PM 48.9 °F - 48.9 °F 100% 30.46 in 9.0 mi Variable 4.6 mph - N/A   Overcast
1:53 PM 50.0 °F - 50.0 °F 100% 30.46 in 9.0 mi NNE 3.5 mph - N/A   Overcast
2:48 PM 50.0 °F - 48.2 °F 94% 30.45 in 10.0 mi Variable 4.6 mph - N/A   Overcast
2:53 PM 50.0 °F - 48.0 °F 93% 30.45 in 10.0 mi SSE 4.6 mph - N/A   Overcast
3:16 PM 50.0 °F - 46.9 °F 89% 30.44 in 10.0 mi SE 4.6 mph - N/A   Overcast
3:53 PM 50.0 °F - 46.9 °F 89% 30.43 in 10.0 mi SE 3.5 mph - N/A   Overcast
4:53 PM 50.0 °F - 48.0 °F 93% 30.42 in 10.0 mi Calm Calm - N/A   Overcast
5:53 PM 48.9 °F - 48.0 °F 97% 30.40 in 7.0 mi Calm Calm - N/A   Overcast
6:53 PM 48.0 °F - 46.0 °F 93% 30.40 in 7.0 mi NNW 3.5 mph - N/A   Scattered Clouds
7:13 PM 46.0 °F 42.5 °F 46.0 °F 100% 30.39 in 2.0 mi North 6.9 mph - N/A   Mostly Cloudy
7:18 PM 46.9 °F - 46.0 °F 97% 30.39 in 0.8 mi NNE 4.6 mph - N/A   Mist
7:36 PM 46.9 °F - 46.9 °F 100% 30.38 in 0.2 mi NNE 5.8 mph - N/A Fog Fog
7:53 PM 46.9 °F - 46.9 °F 100% 30.38 in 0.2 mi NE 5.8 mph - N/A Fog Fog
8:53 PM 46.0 °F 44.8 °F 46.0 °F 100% 30.36 in 0.2 mi North 3.5 mph - N/A Fog Fog
9:53 PM 46.0 °F 44.8 °F 46.0 °F 100% 30.34 in 0.2 mi NW 3.5 mph - N/A Fog Fog
10:53 PM 45.0 °F 42.6 °F 45.0 °F 100% 30.33 in 0.2 mi NNW 4.6 mph - N/A Fog Fog
11:07 PM 46.0 °F 41.9 °F 46.0 °F 100% 30.32 in 0.5 mi North 8.1 mph - N/A Fog Fog
11:22 PM 46.0 °F 42.5 °F 46.0 °F 100% 30.32 in 1.8 mi North 6.9 mph - N/A   Overcast
11:43 PM 46.0 °F 43.1 °F 46.0 °F 100% 30.32 in 3.0 mi NNW 5.8 mph - N/A   Overcast
11:53 PM 46.0 °F 43.1 °F 46.0 °F 100% 30.32 in 4.0 mi North 5.8 mph - N/A   Overcast